Погода в Маэбаси

Япония     36°23′15″N   139°04′11″E
темп.,
°C
ветер,
м/с
пор.,
м/с
влажн.,
%
обл.,
%
осадки,
мм/ч
давл.,
гПа
погр.,
м
4 марта, чт
чт400:00+1юв015299 0.0 103323
03:00+1св115797 0.0 103256
06:00+1св116499 0.0 103378
09:00+4ююв125688 0.0 1033827
12:00+8ююв224843 0.0 1031886
15:00+8юв234752 0.0 1029931
18:00+6всв1257100 0.0 1030302
21:00+5ссв1266100 0.0 103088
5 марта, пт
пт500:00+6ссв0176100 0.1 102961
03:00+5с1281100 0.1 102770
06:00+4с1185100 0.0 102766
09:00+7св1179100 0.0 1026345
12:00+9юв3468100 0.1 1023812
15:00+10юв2263100 0.1 1022790
18:00+8с1179100 0.4 1022121
21:00+7ссв118398 0.5 102235
6 марта, сб
сб600:00+7ссз228472 0.0 102186
03:00+5ссз238864 0.0 101972
06:00+6с2383100 0.0 101989
09:00+10ссз246785 0.0 1019253
12:00+15ссз4555100 0.0 1018891
15:00+12ссз5857100 0.0 1018890
18:00+8с576698 0.0 1021499
21:00+5ссз467185 0.0 1024387
7 марта, вс
вс700:00+3ссз466729 0.0 1025380
03:00+2с346848 0.0 1025259
06:00+1ссз3569100 0.0 1027215
09:00+4св1255100 0.0 1028600
12:00+7юв3350100 0.0 1026996
15:00+6ююв3349100 0.0 10241054
18:00+5ю2357100 0.0 1026751
21:00+3ююв1370100 0.0 1027623
8 марта, пн
пн800:00+2ю0178100 0.1 1025355
03:00+2с128098 0.1 1025252
06:00+1ссз238072 0.0 1026134
09:00+5ссз245136 0.0 1026619
12:00+9ссз33380 0.0 10251126
15:00+9с45410 0.0 1024749
18:00+3ссз46570 0.0 1025323
21:00+1с45611 0.0 1028195